Weather History for KFBG - February, 2014

Change the Weather History Date:

Tuesday, February 25, 2014

  Actual Average Record
Temperature  
Mean Temperature 48 °F -  
Max Temperature 63 °F 56 °F 73 °F (2011)
Min Temperature 32 °F 36 °F 26 °F (2009)
Degree Days  
Heating Degree Days 18    
Moisture  
Dew Point 27 °F    
Average Humidity 50    
Maximum Humidity 81    
Minimum Humidity 32    
Precipitation  
Precipitation 0.00 in - - ()
Sea Level Pressure  
Sea Level Pressure 30.01 in    
Wind  
Wind Speed 4 mph (NNE)    
Max Wind Speed 12 mph    
Max Gust Speed -    
Visibility 9 miles    
Events      
Averages and records for this station are not official NWS values.
T = Trace of Precipitation, MM = Missing Value Source: NWS Daily Summary

Daily Weather History Graph

Daily Weather History Graph

Search for Another Location

Airport or City:

Trip Planner

Search our weather history database for the weather conditions in past years. The results will help you decide how hot, cold, wet, or windy it might be!

Date:

Astronomy

Feb. 25, 2014 Rise Set
Actual Time 6:50 AM EST 6:07 PM EST
Civil Twilight 6:24 AM EST 6:33 PM EST
Nautical Twilight 5:55 AM EST 7:02 PM EST
Astronomical Twilight 5:25 AM EST 7:32 PM EST
Moon 3:37 AM EST (2/25) 2:17 PM EST (2/25)
Length of Visible Light 12h 08m
Length of Day
11h 17m
Waning Crescent, 18% of the Moon is Illuminated
Feb 25
Waning Crescent
Mar 1
New
Mar 8
First Quarter
Mar 16
Full
Mar 23
Last Quarter

Hourly Weather History & Observations

Time (EST) Temp. Windchill Dew Point Humidity Pressure Visibility Wind Dir Wind Speed Gust Speed Precip Events Conditions
12:58 AM 40.6 °F 38.6 °F 25.5 °F 55% 30.13 in 8.0 mi NNE 3.5 mph - N/A   Clear
1:58 AM 39.4 °F - 26.6 °F 60% 30.11 in 7.0 mi Calm Calm - N/A   Clear
2:58 AM 37.0 °F - 28.4 °F 71% 30.08 in 10.0 mi Calm Calm - N/A   Clear
3:58 AM 36.3 °F - 28.0 °F 72% 30.07 in 8.0 mi Calm Calm - N/A   Clear
4:58 AM 34.0 °F 31.0 °F 27.7 °F 78% 30.08 in 9.0 mi NNW 3.5 mph - N/A   Clear
5:58 AM 32.5 °F - 27.3 °F 81% 30.07 in 8.0 mi NNE 1.2 mph - N/A   Clear
6:58 AM 32.5 °F 28.1 °F 25.9 °F 76% 30.07 in 9.0 mi North 4.6 mph - N/A   Scattered Clouds
7:58 AM 36.3 °F - 27.1 °F 69% 30.07 in 6.0 mi NE 2.3 mph - N/A   Haze
8:58 AM 45.1 °F 42.0 °F 21.0 °F 38% 30.05 in 10.0 mi East 5.8 mph - N/A   Mostly Cloudy
9:58 AM 49.8 °F - 21.0 °F 32% 30.03 in 10.0 mi SE 4.6 mph - N/A   Overcast
10:58 AM 53.6 °F - 25.5 °F 34% 30.01 in 9.0 mi SE 3.5 mph - N/A   Scattered Clouds
11:58 AM 58.8 °F - 31.1 °F 35% 29.98 in 10.0 mi Variable 6.9 mph - N/A   Partly Cloudy
12:58 PM 59.7 °F - 36.7 °F 42% 29.96 in 7.0 mi West 4.6 mph - N/A   Mostly Cloudy
1:58 PM 62.8 °F - 33.4 °F 33% 29.93 in 10.0 mi NW 6.9 mph - N/A   Partly Cloudy
2:58 PM 63.0 °F - 32.9 °F 32% 29.92 in 10.0 mi NNW 8.1 mph - N/A   Scattered Clouds
3:58 PM 61.9 °F - 32.0 °F 33% 29.92 in 10.0 mi NNW 10.4 mph - N/A   Clear
4:58 PM 59.9 °F - 29.5 °F 32% 29.92 in 10.0 mi North 9.2 mph - N/A   Clear
5:58 PM 55.2 °F - 27.9 °F 35% 29.95 in 10.0 mi North 11.5 mph - N/A   Clear
6:58 PM 49.8 °F - 23.7 °F 36% 29.96 in 10.0 mi NNE 4.6 mph - N/A   Clear
7:58 PM 47.5 °F - 24.3 °F 40% 29.97 in 10.0 mi NNE 4.6 mph - N/A   Clear
8:58 PM 45.9 °F 42.9 °F 24.3 °F 43% 29.99 in 10.0 mi ENE 5.8 mph - N/A   Overcast
9:58 PM 43.3 °F 41.7 °F 25.3 °F 49% 29.99 in 10.0 mi NE 3.5 mph - N/A   Clear
10:58 PM 40.5 °F - 26.4 °F 57% 29.99 in 10.0 mi North 1.2 mph - N/A   Clear
11:58 PM 40.5 °F 38.4 °F 26.4 °F 57% 29.98 in 10.0 mi NE 3.5 mph - N/A   Overcast